Santa Rosa, CA

6:54 AM PDT on April 21, 2018 (GMT -0700)
Sonoma County

Weather History for KSTS - November, 2012

Change the Weather History Date:

Friday, November 16, 2012

  Actual Average Record
Temperature  
Mean Temperature 54 °F 52 °F  
Max Temperature 60 °F 64 °F 77 °F (2008)
Min Temperature 48 °F 40 °F 31 °F (2009)
Degree Days  
Heating Degree Days 11    
Month to date heating degree days 166  
Since 1 July heating degree days 376  
Cooling Degree Days 0    
Month to date cooling degree days 0  
Year to date cooling degree days 340  
Growing Degree Days 4 (Base 50)    
Moisture  
Dew Point 51 °F    
Average Humidity 90    
Maximum Humidity 96    
Minimum Humidity 83    
Precipitation  
Precipitation 0.90 in 0.14 in 0.90 in (2012)
Month to date precipitation 0.94 2.31  
Year to date precipitation 22.12 26.87  
Since 1 July precipitation 3.33  
Sea Level Pressure  
Sea Level Pressure 29.91 in    
Wind  
Wind Speed 2 mph (NNE)    
Max Wind Speed 8 mph    
Max Gust Speed 10 mph    
Visibility 5 miles    
Events Rain    
T = Trace of Precipitation, MM = Missing Value Source: NWS Daily Summary

Daily Weather History Graph

Daily Weather History Graph

Search for Another Location

Airport or City:

Astronomy

Nov. 16, 2012 Rise Set
Actual Time 6:54 AM PST 4:57 PM PST
Civil Twilight 6:26 AM PST 5:25 PM PST
Nautical Twilight 5:54 AM PST 5:57 PM PST
Astronomical Twilight 5:22 AM PST 6:29 PM PST
Moon 9:53 AM PST (11/16) 8:03 PM PST (11/16)
Length of Visible Light 10h 59m
Length of Day
10h 02m
Waxing Crescent, 12% of the Moon is Illuminated
Nov 16
Waxing Crescent
Nov 20
First Quarter
Nov 28
Full
Dec 6
Last Quarter
Dec 13
New

Hourly Weather History & Observations

Time (PST) Temp. Dew Point Humidity Pressure Visibility Wind Dir Wind Speed Gust Speed Precip Events Conditions
12:53 AM 48.9 °F 45.0 °F 86% 29.97 in 9.0 mi Calm Calm - N/A   Partly Cloudy
1:53 AM 50.0 °F 46.0 °F 86% 29.96 in 9.0 mi Calm Calm - N/A   Mostly Cloudy
2:35 AM 50.0 °F 46.4 °F 87% 29.98 in 10.0 mi Calm Calm - N/A   Mostly Cloudy
2:53 AM 48.9 °F 46.0 °F 90% 29.96 in 9.0 mi Calm Calm - N/A   Scattered Clouds
3:23 AM 50.0 °F 46.4 °F 87% 29.97 in 9.0 mi West 3.5 mph - N/A   Mostly Cloudy
3:44 AM 48.2 °F 46.4 °F 93% 29.96 in 9.0 mi Calm Calm - N/A   Scattered Clouds
3:53 AM 50.0 °F 46.9 °F 89% 29.94 in 9.0 mi Calm Calm - N/A   Partly Cloudy
4:40 AM 48.2 °F 46.4 °F 93% 29.95 in 9.0 mi Calm Calm - N/A   Mostly Cloudy
4:53 AM 48.9 °F 46.0 °F 90% 29.93 in 9.0 mi South 3.5 mph - N/A   Overcast
5:53 AM 50.0 °F 46.9 °F 89% 29.94 in 8.0 mi SSE 3.5 mph - N/A   Overcast
6:02 AM 50.0 °F 46.4 °F 87% 29.95 in 8.0 mi ESE 3.5 mph - N/A   Mostly Cloudy
6:53 AM 50.0 °F 46.9 °F 89% 29.94 in 8.0 mi West 4.6 mph - N/A   Overcast
7:53 AM 51.1 °F 48.0 °F 89% 29.95 in 7.0 mi Calm Calm - 0.00 in Rain Light Rain
8:53 AM 52.0 °F 50.0 °F 93% 29.96 in 4.0 mi NW 3.5 mph - 0.05 in Rain Light Rain
9:53 AM 55.0 °F 53.1 °F 93% 29.97 in 7.0 mi North 4.6 mph - 0.00 in   Overcast
10:53 AM 55.9 °F 53.1 °F 90% 29.97 in 8.0 mi NNW 3.5 mph - N/A   Overcast
11:16 AM 57.2 °F 53.6 °F 88% 29.98 in 2.5 mi Calm Calm - 0.00 in Rain Light Rain
11:53 AM 57.0 °F 52.0 °F 83% 29.95 in 2.5 mi East 4.6 mph - 0.01 in Rain Light Rain
12:00 PM 57.2 °F 53.6 °F 88% 29.96 in 3.0 mi NE 4.6 mph - 0.00 in Rain Light Rain
12:53 PM 59.0 °F 51.1 °F 75% 29.92 in 4.0 mi Calm Calm - 0.00 in   Overcast
1:53 PM 57.9 °F 53.1 °F 84% 29.91 in 5.0 mi NW 3.5 mph - 0.00 in Rain Light Rain
2:53 PM 60.1 °F 52.0 °F 75% 29.90 in 6.0 mi Calm Calm - 0.00 in   Overcast
3:53 PM 57.0 °F 55.0 °F 93% 29.89 in 8.0 mi Calm Calm - 0.01 in   Overcast
4:35 PM 57.2 °F 53.6 °F 88% 29.91 in 3.0 mi Calm Calm - 0.03 in Rain Rain
4:44 PM 55.4 °F 53.6 °F 94% 29.91 in 2.5 mi Calm Calm - 0.04 in Rain Light Rain
4:53 PM 55.9 °F 54.0 °F 93% 29.89 in 4.0 mi Calm Calm - 0.05 in Rain Rain
5:00 PM 55.4 °F 53.6 °F 94% 29.91 in 2.5 mi Calm Calm - 0.01 in Rain Light Rain
5:53 PM 55.0 °F 54.0 °F 96% 29.88 in 2.5 mi Calm Calm - 0.12 in Rain Rain
6:53 PM 55.0 °F 54.0 °F 96% 29.87 in 2.5 mi Calm Calm - 0.04 in Rain Light Rain
7:05 PM 55.4 °F 53.6 °F 94% 29.89 in 3.0 mi Calm Calm - 0.02 in Rain Light Rain
7:34 PM 55.4 °F 53.6 °F 94% 29.89 in 4.0 mi Calm Calm - 0.04 in Rain Light Rain
7:53 PM 55.0 °F 54.0 °F 96% 29.87 in 3.0 mi NNE 3.5 mph - 0.06 in Rain Rain
8:23 PM 55.4 °F 53.6 °F 94% 29.88 in 2.5 mi North 3.5 mph - 0.04 in Rain Light Rain
8:39 PM 55.4 °F 53.6 °F 94% 29.88 in 1.8 mi NNW 3.5 mph - 0.08 in Rain Rain
8:51 PM 55.4 °F 53.6 °F 94% 29.88 in 2.0 mi NNW 4.6 mph - 0.12 in Rain Rain
8:53 PM 55.0 °F 53.1 °F 93% 29.86 in 2.0 mi NNW 3.5 mph - 0.12 in Rain Rain
9:39 PM 55.4 °F 53.6 °F 94% 29.87 in 3.0 mi Calm Calm - 0.11 in Rain Light Rain
9:53 PM 55.0 °F 54.0 °F 96% 29.87 in 2.0 mi South 4.6 mph - 0.16 in Rain Heavy Rain
10:00 PM 55.4 °F 53.6 °F 94% 29.88 in 2.0 mi Calm Calm - 0.04 in Rain Heavy Rain
10:07 PM 55.4 °F 53.6 °F 94% 29.87 in 3.0 mi East 3.5 mph - 0.06 in Rain Rain
10:53 PM 55.9 °F 53.1 °F 90% 29.83 in 4.0 mi Calm Calm - 0.18 in Rain Rain
11:11 PM 55.4 °F 53.6 °F 94% 29.85 in 2.5 mi Calm Calm - 0.07 in Rain Rain
11:34 PM 55.4 °F 53.6 °F 94% 29.85 in 3.0 mi SE 3.5 mph - 0.10 in Rain Light Rain
11:44 PM 55.4 °F 53.6 °F 94% 29.85 in 4.0 mi SE 5.8 mph - 0.10 in Rain Light Rain
11:53 PM 55.9 °F 54.0 °F 93% 29.83 in 5.0 mi SE 4.6 mph - 0.10 in Rain Light Rain